Dewpoint
47 47 47 48 50 51 51 50 49 49 48 49 48 45 48 50 39 19 17 20 27 36 48 36 37 38 41 39 38 38 36 36 40 42 45 46 46 47 47 44 43 41 38 32 31
48 47 46 46 49 50 50 49 49 49 47 46 48 44 46 50 25 16 24 37 45 48 27 33 35 36 36 37 43 49 41 42 45 46 46 46 46 45 44 41 38 35 30 29 28
48 46 45 45 48 50 49 49 49 51 47 46 43 45 46 45 22 13 25 27 31 36 29 32 38 36 34 38 39 43 42 45 46 46 46 44 43 44 41 38 38 31 28 27 28
49 47 45 45 46 48 48 48 49 49 48 44 41 47 38 30 13 17 23 27 28 29 26 33 34 38 39 40 41 41 43 44 45 45 44 42 38 37 38 34 29 26 27 28 29
50 48 46 44 45 46 47 46 49 47 46 42 43 45 28 15 13 19 24 25 24 23 30 34 36 38 38 40 41 41 41 41 39 38 36 32 30 29 27 26 27 28 28 27 27
50 49 47 45 45 45 46 45 46 46 44 41 42 35 34 13 18 21 22 23 22 26 25 29 36 39 39 37 38 37 35 35 34 32 29 27 27 27 26 27 27 26 25 25 25
51 49 47 45 45 45 43 44 43 43 41 39 39 26 18 16 20 22 25 24 23 23 32 35 33 32 37 36 36 34 32 32 32 30 29 27 25 25 25 25 23 22 22 23 25
51 50 47 45 44 44 44 40 40 41 39 37 35 31 16 18 20 23 26 26 28 28 27 30 36 36 34 36 33 30 28 24 25 25 25 22 22 23 23 21 20 20 21 23 24
51 50 47 44 44 45 42 38 35 41 40 35 28 24 13 17 20 23 25 26 28 29 30 30 29 31 34 29 24 22 18 20 22 21 18 20 21 22 20 18 19 20 22 23 24
52 50 48 43 43 44 39 40 34 38 29 20 14 21 14 13 17 21 22 26 27 27 26 27 28 27 25 21 16 18 17 17 14 16 11 13 18 21 19 18 19 20 21 23 24
52 50 47 43 42 43 40 42 25 26 19 21 17 15 14 15 16 17 22 24 24 24 23 24 21 19 19 13 11 12 16 12 10 11 12 11 18 19 19 16 18 19 21 22 24
52 50 47 42 40 43 46 42 29 33 15 13 17 17 15 17 12 14 18 20 23 22 22 20 18 13 7 7 11 11 10 8 8 10 16 11 15 16 17 15 17 18 20 22 24
52 50 46 41 41 43 41 36 34 37 22 13 12 13 14 16 13 12 14 16 19 20 20 19 16 10 5 6 6 6 6 9 6 8 15 11 11 14 17 17 18 19 20 21 23
51 49 43 40 31 39 36 39 40 45 23 12 8 10 12 16 15 12 15 17 18 17 18 16 11 9 7 6 10 4 7 5 7 7 7 8 2 13 15 17 19 20 21 22 23
51 48 42 37 44 30 40 44 47 50 17 11 5 12 9 10 12 10 14 14 15 16 17 14 8 9 8 10 12 11 7 6 6 5 8 9 -0 3 15 16 17 21 23 23 24
51 47 40 31 38 44 44 46 48 26 3 10 6 7 8 11 9 9 12 16 15 16 17 14 14 14 13 10 9 11 11 10 10 8 9 7 5 10 14 15 16 20 23 25 24
50 46 37 30 35 46 47 42 19 12 13 9 3 8 6 8 8 9 11 14 15 14 13 10 11 12 14 9 10 11 12 20 11 9 14 6 4 1 12 13 12 18 22 25 26
49 43 31 37 44 49 43 30 17 19 11 5 4 9 7 8 9 7 7 8 13 11 12 9 9 10 15 17 13 12 16 33 22 16 13 7 -2 12 16 16 18 16 21 25 27
46 40 33 38 50 50 34 31 21 20 13 7 7 8 8 9 16 12 10 8 12 15 16 11 11 13 13 16 17 12 16 23 19 21 11 3 16 19 15 15 17 18 20 25 28
44 31 26 41 52 46 35 27 19 16 9 9 12 13 10 10 11 13 11 11 10 12 23 16 16 11 14 16 18 25 23 17 35 -3 12 3 -2 9 13 13 15 16 19 26 28
41 33 35 52 51 34 35 26 18 14 9 12 12 12 12 12 9 12 10 17 15 18 18 16 23 11 13 12 12 20 22 23 30 23 22 9 4 13 16 13 16 18 20 25 28
43 31 51 52 29 35 33 25 20 15 11 17 16 16 14 13 10 9 9 15 18 20 14 21 26 14 10 17 17 19 16 20 21 13 22 14 12 19 18 17 20 19 22 26 29
38 44 50 46 29 33 24 25 21 17 14 16 16 18 17 16 16 16 14 23 21 20 17 22 23 13 11 15 15 17 21 29 35 25 24 14 14 20 19 20 20 23 24 27 28
41 37 43 43 33 29 23 23 23 21 17 15 17 20 20 18 17 22 18 23 22 21 23 21 17 25 18 28 28 11 24 31 28 22 18 16 14 16 16 18 20 24 25 27 27
44 38 39 29 36 30 28 25 24 22 19 16 20 20 22 22 20 21 21 23 24 26 25 22 22 25 25 20 20 18 19 26 24 23 14 8 6 7 16 17 21 24 25 26 26
39 40 41 30 29 30 29 26 24 24 22 17 19 18 20 24 24 21 19 22 20 25 24 23 27 23 23 15 14 10 8 17 25 23 19 16 12 13 16 19 21 22 24 25 25
46 47 38 34 29 31 31 27 26 26 24 23 20 18 19 22 24 26 24 24 22 25 25 24 25 24 17 16 15 14 16 14 13 17 19 15 14 14 15 17 22 24 25 25 25
Wind_Speed
10 13 16 18 20 19 20 22 22 21 20 22 24 27 28 24 23 14 11 11 11 27 15 18 6 2 4 5 15 26 23 18 20 15 12 16 15 15 18 17 10 8 10 7 3
11 10 14 17 20 20 21 23 24 23 21 22 24 27 26 24 11 20 14 14 12 8 11 16 5 7 2 3 22 15 27 21 17 26 19 18 21 16 10 16 13 14 11 7 9
11 13 13 15 19 21 21 24 25 26 24 24 25 26 26 17 8 14 20 18 21 15 18 10 7 5 12 17 27 15 24 28 25 25 23 22 19 19 21 12 8 13 12 9 7
10 13 14 13 16 20 21 24 25 26 27 26 27 24 34 5 2 14 16 16 17 21 20 11 3 17 22 26 31 38 26 28 27 24 24 23 21 22 20 13 17 16 14 12 9
8 12 15 16 15 19 22 22 25 26 27 28 27 22 13 3 7 16 13 10 15 18 4 18 19 15 20 27 31 33 28 27 26 24 24 22 17 17 19 17 16 14 11 11 11
9 11 15 16 17 17 21 23 25 26 27 26 26 28 4 8 11 12 10 5 10 2 6 5 23 27 31 17 13 26 28 26 23 23 24 25 20 11 15 15 14 12 12 11 10
10 10 13 16 18 19 19 23 25 26 25 25 23 13 17 4 9 6 7 1 5 3 21 23 14 4 19 26 25 29 33 24 22 19 19 21 15 15 16 15 14 13 12 11 10
11 10 12 15 19 20 22 23 25 26 23 21 22 5 4 5 16 9 7 12 14 13 6 7 26 23 8 27 21 24 18 17 13 19 14 2 15 14 14 14 14 13 12 11 10
11 9 12 13 19 22 23 25 22 22 19 20 8 6 5 3 9 14 10 10 13 14 14 11 7 16 29 25 20 18 16 21 15 14 11 9 15 16 15 15 14 13 12 11 10
10 10 11 13 17 21 26 21 15 19 8 8 3 2 1 6 3 7 8 7 16 16 13 16 17 19 18 20 12 13 17 16 12 13 10 13 12 18 16 14 14 14 14 13 12
10 10 10 13 16 20 14 8 4 4 8 5 2 3 7 5 4 6 4 3 1 5 7 8 11 16 19 3 14 7 16 12 13 14 13 8 16 17 18 16 17 15 14 13 13
11 8 9 12 15 21 10 7 7 4 3 4 3 5 5 6 6 7 3 3 5 8 6 10 5 6 5 2 5 10 9 11 6 7 6 10 14 18 20 19 18 17 16 15 15
10 8 9 12 15 10 5 6 9 14 4 1 2 5 2 7 1 6 8 2 6 5 11 7 7 3 2 5 7 7 10 9 6 9 11 10 15 21 21 19 18 17 17 16 15
12 8 8 11 4 1 2 8 8 6 3 5 5 3 4 2 1 2 5 4 1 5 7 6 2 2 6 7 7 8 8 3 6 11 3 15 11 25 25 23 21 19 15 15 14
13 9 6 3 9 5 3 4 8 4 2 7 6 2 3 6 11 2 0 4 4 3 3 3 3 4 8 6 7 6 5 4 6 11 10 10 8 19 27 23 23 21 18 14 15
15 10 6 5 5 6 3 2 2 1 7 6 4 7 9 4 3 5 3 6 7 11 12 4 3 7 6 5 4 5 4 3 3 9 9 20 11 15 24 23 23 22 20 19 15
16 12 7 11 2 4 2 3 3 5 5 7 6 10 12 7 7 9 10 9 6 6 5 7 2 2 5 7 3 6 6 3 7 8 7 5 5 11 11 14 18 25 24 22 19
16 10 8 10 3 3 3 8 5 8 5 6 8 9 12 8 7 11 12 11 12 11 10 9 4 5 2 3 3 10 10 4 5 4 6 8 7 4 12 8 4 4 24 23 20
16 5 6 8 7 5 10 9 9 9 10 9 11 11 10 10 2 7 9 13 11 8 7 9 5 3 3 3 5 7 6 6 5 8 5 7 5 4 11 11 8 6 13 21 20
10 10 12 15 10 9 10 10 10 2 9 15 7 7 10 11 6 8 11 8 10 6 5 2 5 4 3 3 4 4 5 3 2 3 4 8 14 2 17 14 11 12 10 19 20
3 8 7 17 11 13 12 13 8 7 13 9 5 13 13 8 13 10 5 1 4 6 3 2 5 4 2 8 10 5 3 3 4 5 3 5 2 8 13 13 14 12 12 12 18
7 6 12 16 15 12 19 18 11 13 11 3 8 6 13 9 7 10 10 4 5 10 6 2 3 6 6 2 4 5 12 11 6 5 6 6 7 4 7 7 9 9 9 9 15
15 5 7 12 16 21 19 23 11 16 15 9 9 4 5 9 2 10 6 6 4 7 4 8 6 5 4 4 3 6 5 4 2 2 10 5 4 5 4 4 4 8 8 11 13
9 9 4 12 19 22 27 28 20 17 17 10 8 9 8 10 11 3 3 3 2 4 3 1 4 7 7 2 4 5 8 5 7 9 7 22 15 9 12 11 10 9 9 12 10
6 10 8 17 19 22 27 22 26 16 19 16 11 12 12 9 16 10 4 4 2 3 2 3 5 5 4 6 7 7 7 15 22 26 12 15 16 11 11 11 11 10 9 11 9
10 8 4 16 24 24 27 31 31 25 19 24 13 17 16 7 9 11 10 7 6 11 10 6 3 3 5 12 12 13 14 16 21 24 27 28 31 22 5 8 9 9 12 11 11
7 3 7 17 29 25 27 31 27 27 20 21 19 14 13 7 8 6 5 12 10 11 14 9 4 3 4 2 6 11 25 25 24 16 24 24 21 17 6 10 9 8 10 12 11
Wind_Direction
336 343 338 338 336 341 338 333 329 329 333 328 328 330 326 335 321 52 26 307 293 313 323 286 164 175 333 325 95 115 126 122 117 123 130 140 99 73 80 83 68 63 75 90 54
324 340 335 338 334 338 338 334 330 325 329 328 328 328 329 337 306 45 343 320 300 273 304 270 107 172 170 336 68 344 74 72 95 116 124 114 105 104 106 93 86 90 85 90 82
321 328 329 339 335 334 342 335 330 325 326 327 330 327 328 333 268 22 353 338 318 297 278 276 82 158 134 54 96 139 103 106 109 120 116 115 109 119 119 84 90 124 116 116 110
318 319 320 335 337 333 340 335 330 327 324 325 327 330 325 292 9 358 351 318 301 297 302 138 139 89 88 87 100 101 105 108 117 121 123 120 104 72 87 113 137 137 143 142 117
309 313 317 324 335 334 335 337 329 326 323 322 324 330 336 90 14 334 323 296 284 272 128 109 102 101 97 100 99 105 111 107 106 105 105 104 101 102 105 113 119 125 116 106 100
300 311 314 319 327 335 333 334 326 323 318 319 325 328 234 67 334 336 312 265 270 27 26 163 91 106 113 105 102 116 110 113 116 113 111 114 123 112 123 130 127 128 124 112 103
292 305 312 319 324 328 333 329 323 317 315 316 320 341 54 28 335 14 323 74 217 283 101 107 112 118 102 101 119 121 116 115 123 133 130 119 105 120 141 146 140 134 125 120 115
285 301 312 321 323 326 325 323 317 309 307 309 315 317 57 318 319 45 71 59 59 58 94 125 114 119 109 124 135 126 124 128 147 142 160 290 142 147 154 153 146 143 139 133 120
278 296 311 323 323 323 322 315 307 297 294 297 306 305 112 246 51 26 35 82 88 76 83 109 77 118 137 141 152 188 162 134 155 191 157 223 138 163 171 166 156 158 149 139 125
264 292 307 319 323 321 320 302 291 303 258 258 262 331 206 92 56 63 3 133 109 116 123 115 120 142 159 176 169 210 134 156 164 188 202 198 157 161 182 176 173 169 159 163 155
258 283 307 316 319 319 338 321 245 195 33 27 33 75 98 106 247 92 1 30 236 221 166 210 176 171 181 328 300 185 128 171 142 163 197 188 144 173 186 185 187 176 169 170 149
244 270 297 307 316 318 297 301 37 350 63 87 88 51 63 327 131 104 227 248 237 202 171 186 123 53 67 339 280 109 166 118 129 190 265 190 162 178 187 197 187 186 183 171 147
237 266 288 302 322 306 284 345 338 359 253 109 66 156 130 309 44 84 316 314 245 184 204 189 85 21 130 187 184 161 173 168 202 188 251 193 191 188 191 200 197 198 187 175 171
220 235 268 308 305 224 237 5 360 355 211 151 192 129 202 115 69 325 337 344 256 216 97 64 79 102 202 146 1 163 62 178 158 196 267 203 275 189 191 198 202 196 196 184 182
213 223 253 293 316 238 44 15 10 280 246 152 125 13 149 203 138 130 131 263 195 84 13 80 136 190 198 76 355 95 148 201 203 245 313 210 251 227 182 200 200 200 196 194 180
203 205 226 228 247 308 0 44 29 82 221 167 149 182 168 197 151 142 106 69 78 79 64 82 33 23 40 113 10 134 158 209 257 254 263 252 209 152 181 200 200 198 194 194 189
190 196 205 306 250 136 214 220 157 230 174 153 188 169 182 193 180 180 169 161 174 141 141 142 86 9 307 120 150 212 193 221 228 191 244 77 194 263 124 179 198 189 187 186 185
178 175 235 252 250 176 208 202 188 206 175 112 157 177 187 172 216 207 188 192 223 223 153 177 200 176 168 0 275 216 211 174 254 248 317 151 238 146 129 125 81 175 178 176 176
146 196 229 236 215 204 201 200 201 218 144 152 128 173 193 176 328 218 238 208 201 225 191 198 134 83 344 349 331 195 233 349 279 294 284 254 131 144 149 155 161 176 170 169 172
166 173 221 200 205 189 209 204 220 241 154 159 144 173 207 197 201 202 204 223 191 195 15 345 118 188 139 307 253 314 334 190 46 225 238 264 273 216 177 178 179 185 201 168 169
132 127 214 159 176 192 200 195 204 161 165 176 156 154 200 198 204 202 212 74 185 160 244 165 110 153 105 211 198 198 219 227 191 231 264 298 315 2 173 189 176 190 180 182 165
141 129 166 160 177 189 202 196 240 173 179 162 164 144 157 165 219 243 239 208 119 148 198 162 105 184 207 85 333 318 226 204 195 229 232 303 272 52 70 83 149 169 163 165 150
147 109 215 203 196 188 198 211 213 180 190 177 169 146 176 145 88 260 248 4 116 177 298 155 176 154 230 216 228 233 221 128 118 342 237 210 244 137 136 161 184 140 158 147 158
151 156 194 209 231 191 191 201 201 210 196 190 166 143 160 135 184 225 197 87 347 235 26 141 234 206 226 116 123 213 217 178 189 218 242 240 265 208 202 199 178 155 155 150 160
145 203 178 185 220 199 196 194 195 191 207 190 186 195 175 162 177 195 226 98 204 202 254 220 251 250 263 253 213 230 220 204 212 224 219 258 258 292 190 184 167 148 154 137 148
151 146 188 185 200 204 200 213 199 199 196 194 205 197 191 195 184 183 190 166 200 182 211 206 262 244 278 245 239 258 249 225 219 241 248 260 272 293 133 131 145 164 171 157 146
224 230 191 164 194 207 203 205 206 203 194 206 206 175 196 181 169 113 172 184 246 168 208 187 216 160 250 325 298 277 241 235 226 220 222 242 255 276 174 153 147 156 154 151 153